Location: Newark
(50.1751°N, 5.6239°W)
Time: 14:26:16
(UTC+00:00)

ISS - Pass Details

Date: 30 September 2021
Orbit: 417 x 423 km, 51.6° (Epoch: 28 October)

Event Time Altitude Azimuth Distance (km) Brightness Sun altitude
Rises 18:59:55 0° 285° (WNW) 2,366 2.2 -10.0°
Reaches altitude 10° 19:02:01 10° 285° (WNW) 1,502 0.6 -10.3°
Maximum altitude 19:05:24 88° 198° (SSW) 425 -3.8 -10.9°
Enters shadow 19:07:47 18° 107° (ESE) 1,107 -2.3 -11.2°
